TimePDT,TemperatureF,Dew PointF,Humidity,Sea Level PressureIn,VisibilityMPH,Wind Direction,Wind SpeedMPH,Gust SpeedMPH,PrecipitationIn,Events,Conditions,WindDirDegrees,DateUTC
12:00 AM,53.6,50.0,88,30.07,10.0,SSW,5.8,-,N/A,,Clear,210,2013-09-14 07:00:00
12:20 AM,51.8,50.0,94,30.06,10.0,South,8.1,-,N/A,,Clear,190,2013-09-14 07:20:00
12:40 AM,51.8,50.0,94,30.06,10.0,SSW,6.9,-,N/A,,Clear,200,2013-09-14 07:40:00
1:00 AM,51.8,50.0,94,30.06,10.0,SSW,6.9,-,N/A,,Clear,210,2013-09-14 08:00:00
1:20 AM,51.8,50.0,94,30.06,10.0,SSW,3.5,-,N/A,,Mostly Cloudy,210,2013-09-14 08:20:00
1:40 AM,50.0,48.2,94,30.06,10.0,SSW,5.8,-,N/A,,Scattered Clouds,200,2013-09-14 08:40:00
2:00 AM,50.0,48.2,94,30.06,10.0,South,4.6,-,N/A,,Clear,180,2013-09-14 09:00:00
2:20 AM,50.0,48.2,94,30.06,10.0,South,3.5,-,N/A,,Clear,180,2013-09-14 09:20:00
2:40 AM,48.2,46.4,93,30.06,10.0,SSW,4.6,-,N/A,,Clear,200,2013-09-14 09:40:00
3:00 AM,48.2,48.2,100,30.06,10.0,South,4.6,-,N/A,,Clear,190,2013-09-14 10:00:00
3:20 AM,48.2,46.4,93,30.06,10.0,South,5.8,-,N/A,,Clear,180,2013-09-14 10:20:00
3:40 AM,48.2,46.4,93,30.05,10.0,South,3.5,-,N/A,,Clear,170,2013-09-14 10:40:00
4:00 AM,48.2,46.4,93,30.05,10.0,SSW,5.8,-,N/A,,Clear,210,2013-09-14 11:00:00
4:20 AM,48.2,46.4,93,30.05,10.0,South,5.8,-,N/A,,Clear,180,2013-09-14 11:20:00
4:40 AM,48.2,46.4,93,30.05,10.0,South,5.8,-,N/A,,Clear,190,2013-09-14 11:40:00
5:00 AM,48.2,46.4,93,30.05,10.0,SSW,6.9,-,N/A,,Scattered Clouds,200,2013-09-14 12:00:00
5:20 AM,48.2,46.4,93,30.06,10.0,South,4.6,-,N/A,,Overcast,170,2013-09-14 12:20:00
5:40 AM,48.2,48.2,100,30.06,10.0,South,5.8,-,N/A,,Overcast,180,2013-09-14 12:40:00
6:00 AM,48.2,46.4,93,30.06,10.0,SW,4.6,-,N/A,,Mostly Cloudy,220,2013-09-14 13:00:00
6:20 AM,46.4,46.4,100,30.07,10.0,SW,3.5,-,N/A,,Partly Cloudy,220,2013-09-14 13:20:00
6:40 AM,46.4,44.6,93,30.07,10.0,SSW,4.6,-,N/A,,Clear,210,2013-09-14 13:40:00
7:00 AM,46.4,44.6,93,30.08,10.0,Calm,Calm,-,N/A,,Clear,0,2013-09-14 14:00:00
7:20 AM,48.2,46.4,93,30.08,10.0,SSW,5.8,-,N/A,,Clear,200,2013-09-14 14:20:00
7:40 AM,50.0,48.2,94,30.08,10.0,South,3.5,-,N/A,,Clear,190,2013-09-14 14:40:00
8:00 AM,55.4,50.0,82,30.08,10.0,Calm,Calm,-,N/A,,Clear,0,2013-09-14 15:00:00
8:20 AM,57.2,50.0,77,30.08,10.0,South,4.6,-,N/A,,Clear,180,2013-09-14 15:20:00
8:40 AM,57.2,51.8,82,30.08,10.0,South,5.8,-,N/A,,Clear,180,2013-09-14 15:40:00
9:00 AM,55.4,51.8,88,30.08,10.0,SSW,4.6,-,N/A,,Partly Cloudy,210,2013-09-14 16:00:00
9:20 AM,57.2,53.6,88,30.09,10.0,SSW,4.6,-,N/A,,Clear,200,2013-09-14 16:20:00
9:40 AM,57.2,53.6,88,30.09,10.0,SSW,4.6,-,N/A,,Scattered Clouds,200,2013-09-14 16:40:00
10:00 AM,59.0,53.6,82,30.09,10.0,Calm,Calm,-,N/A,,Mostly Cloudy,0,2013-09-14 17:00:00
10:20 AM,62.6,53.6,72,30.09,10.0,Calm,Calm,-,N/A,,Mostly Cloudy,0,2013-09-14 17:20:00
10:40 AM,64.4,53.6,68,30.09,10.0,Calm,Calm,-,N/A,,Mostly Cloudy,0,2013-09-14 17:40:00
11:00 AM,66.2,53.6,64,30.09,10.0,Calm,Calm,-,N/A,,Partly Cloudy,0,2013-09-14 18:00:00
11:15 AM,68.0,53.6,60,30.09,10.0,Calm,Calm,-,N/A,,Partly Cloudy,0,2013-09-14 18:15:00
11:40 AM,69.8,51.8,53,30.08,10.0,SSE,3.5,-,N/A,,Partly Cloudy,150,2013-09-14 18:40:00
12:00 PM,69.8,53.6,56,30.08,10.0,SE,3.5,-,N/A,,Mostly Cloudy,140,2013-09-14 19:00:00
12:20 PM,68.0,51.8,56,30.08,10.0,Calm,Calm,-,N/A,,Mostly Cloudy,0,2013-09-14 19:20:00
12:40 PM,68.0,51.8,56,30.08,1.2,Calm,Calm,-,N/A,,Mostly Cloudy,0,2013-09-14 19:40:00
1:00 PM,66.2,55.4,68,30.08,3.0,NW,4.6,16.1,N/A,,Mostly Cloudy,310,2013-09-14 20:00:00
1:20 PM,62.6,55.4,77,30.07,10.0,West,4.6,-,N/A,,Scattered Clouds,280,2013-09-14 20:20:00
1:40 PM,64.4,57.2,77,30.06,10.0,SSW,6.9,-,N/A,,Partly Cloudy,210,2013-09-14 20:40:00
2:00 PM,73.4,60.8,65,30.05,10.0,SSW,6.9,-,N/A,,Partly Cloudy,200,2013-09-14 21:00:00
2:20 PM,91.4,78.8,66,30.04,10.0,SSW,4.6,-,N/A,,Partly Cloudy,200,2013-09-14 21:20:00
2:40 PM,68.0,50.0,52,30.04,10.0,SSW,4.6,-,N/A,,Partly Cloudy,200,2013-09-14 21:40:00
2:55 PM,71.6,51.8,50,30.04,10.0,South,5.8,-,N/A,,Clear,190,2013-09-14 21:55:00
3:20 PM,73.4,50.0,44,30.03,10.0,ESE,3.5,-,N/A,,Clear,120,2013-09-14 22:20:00
3:40 PM,69.8,50.0,49,30.03,10.0,Calm,Calm,-,N/A,,Scattered Clouds,0,2013-09-14 22:40:00
4:00 PM,68.0,50.0,52,30.03,10.0,Calm,Calm,-,N/A,,Partly Cloudy,0,2013-09-14 23:00:00
4:20 PM,73.4,50.0,44,30.02,10.0,Calm,Calm,-,N/A,,Partly Cloudy,0,2013-09-14 23:20:00
4:40 PM,73.4,48.2,41,30.02,10.0,South,3.5,-,N/A,,Scattered Clouds,170,2013-09-14 23:40:00
5:00 PM,71.6,50.0,46,30.02,10.0,Calm,Calm,-,N/A,,Partly Cloudy,0,2013-09-15 00:00:00
5:20 PM,73.4,50.0,44,30.02,10.0,Calm,Calm,-,N/A,,Clear,0,2013-09-15 00:20:00
5:40 PM,71.6,50.0,46,30.02,10.0,Calm,Calm,-,N/A,,Clear,0,2013-09-15 00:40:00
6:00 PM,68.0,50.0,52,30.02,10.0,Calm,Calm,-,N/A,,Clear,0,2013-09-15 01:00:00
6:20 PM,66.2,53.6,64,30.02,10.0,Calm,Calm,-,N/A,,Partly Cloudy,0,2013-09-15 01:20:00
6:40 PM,64.4,53.6,68,30.02,10.0,WSW,4.6,-,N/A,,Scattered Clouds,240,2013-09-15 01:40:00
7:00 PM,62.6,55.4,77,30.03,10.0,Calm,Calm,-,N/A,,Partly Cloudy,0,2013-09-15 02:00:00
7:20 PM,62.6,53.6,72,30.04,10.0,Calm,Calm,-,N/A,,Clear,0,2013-09-15 02:20:00
7:40 PM,59.0,53.6,82,30.04,10.0,Calm,Calm,-,N/A,,Clear,0,2013-09-15 02:40:00
8:00 PM,60.8,53.6,77,30.05,10.0,Calm,Calm,-,N/A,,Clear,0,2013-09-15 03:00:00
8:20 PM,59.0,53.6,82,30.06,10.0,Calm,Calm,-,N/A,,Clear,0,2013-09-15 03:20:00
8:40 PM,57.2,53.6,88,30.07,10.0,Calm,Calm,-,N/A,,Clear,0,2013-09-15 03:40:00
9:00 PM,57.2,51.8,82,30.08,10.0,Calm,Calm,-,N/A,,Partly Cloudy,0,2013-09-15 04:00:00
9:20 PM,57.2,51.8,82,30.08,10.0,Calm,Calm,-,N/A,,Partly Cloudy,0,2013-09-15 04:20:00
9:40 PM,55.4,51.8,88,30.08,10.0,Calm,Calm,-,N/A,,Scattered Clouds,0,2013-09-15 04:40:00
10:00 PM,55.4,50.0,82,30.08,10.0,Calm,Calm,-,N/A,,Scattered Clouds,0,2013-09-15 05:00:00
10:20 PM,55.4,50.0,82,30.08,10.0,Calm,Calm,-,N/A,,Clear,0,2013-09-15 05:20:00
10:40 PM,55.4,50.0,82,30.08,10.0,SSE,3.5,-,N/A,,Clear,150,2013-09-15 05:40:00
11:00 PM,53.6,50.0,88,30.08,10.0,Calm,Calm,-,N/A,,Clear,0,2013-09-15 06:00:00
11:20 PM,53.6,50.0,88,30.08,10.0,Calm,Calm,-,N/A,,Clear,0,2013-09-15 06:20:00
11:40 PM,53.6,50.0,88,30.08,10.0,South,4.6,-,N/A,,Clear,190,2013-09-15 06:40:00